EW1669 Weather Reports


Display with metric or nautical units.
time (UTC)temp
F
wind
direction
speed
MPH
gust
MPH
rain 1hr
in
rain 24hr
in
rain mn
in
humidity
%
barometer
mb
20260510023516 78 168 0.0 0.0 0.00 0.00 0.00 17 1011.2
20260510022700 79 142 0.0 0.0 0.00 0.00 0.00 17 1011.2
20260510022051 79 205 0.0 0.0 0.00 0.00 0.00 16 1011.2
20260510021714 79 198 0.0 0.0 0.00 0.00 0.00 16 1011.2
20260510020856 80 186 0.0 0.0 0.00 0.00 0.00 16 1011.2
20260510020519 80 204 0.0 0.0 0.00 0.00 0.00 15 1011.2
20260510015657 80 202 0.0 0.0 0.00 0.00 0.00 15 1010.9
20260510015059 81 192 0.0 0.0 0.00 0.00 0.00 15 1011.2
20260510014452 82 193 0.0 0.0 0.00 0.00 0.00 15 1011.2
20260510013851 83 202 0.0 0.0 0.00 0.00 0.00 13 1010.6
20260510013254 83 191 0.0 2.0 0.00 0.00 0.00 13 1010.9
20260510012656 84 199 1.0 2.0 0.00 0.00 0.00 13 1010.6
20260510012112 84 354 0.0 0.0 0.00 0.00 0.00 13 1010.9
20260510011712 85 214 0.0 8.0 0.00 0.00 0.00 13 1010.9
20260510010847 83 196 0.0 0.0 0.00 0.00 0.00 15 1011.2
20260510010252 83 208 0.0 0.0 0.00 0.00 0.00 15 1011.2
20260510010129 84 207 0.0 8.0 0.00 0.00 0.00 14 1010.9
20260510005053 84 203 1.0 6.0 0.00 0.00 0.00 14 1010.9
20260510004714 84 192 2.0 6.0 0.00 0.00 0.00 14 1011.2
20260510003856 85 188 0.0 1.0 0.00 0.00 0.00 14 1010.9
20260510003245 85 216 0.0 1.0 0.00 0.00 0.00 13 1011.2
20260510002655 86 219 0.0 0.0 0.00 0.00 0.00 13 1011.2
20260510002102 86 198 0.0 0.0 0.00 0.00 0.00 14 1011.2
20260510001451 86 219 0.0 10.0 0.00 0.00 0.00 14 1010.9
20260510000855 86 182 6.0 10.0 0.00 0.00 0.00 13 1011.2
20260510000250 86 190 2.0 10.0 0.00 0.00 0.00 14 1011.2
20260509235648 86 226 0.0 6.0 0.00 0.00 0.00 14 1010.9
20260509235051 87 194 1.0 3.0 0.00 0.00 0.00 13 1011.2
20260509234955 87 193 0.0 0.0 0.00 0.00 0.00 14 1010.9
20260509233854 87 183 0.0 0.0 0.00 0.00 0.00 15 1010.9
20260509233306 87 236 0.0 7.0 0.00 0.00 0.00 13 1011.2
20260509232701 87 227 3.0 7.0 0.00 0.00 0.00 12 1010.9
20260509232055 87 133 0.0 7.0 0.00 0.00 0.00 13 1010.9
20260509231713 88 181 2.0 14.0 0.00 0.00 0.00 13 1010.9
20260509231006 89 196 0.0 7.0 0.00 0.00 0.00 12 1011.2
20260509230852 90 229 7.0 14.0 0.00 0.00 0.00 12 1011.2
20260509225653 91 199 0.0 10.0 0.00 0.00 0.00 12 1010.9
20260509225056 92 220 6.0 10.0 0.00 0.00 0.00 11 1011.2
20260509224721 92 209 0.0 2.0 0.00 0.00 0.00 11 1011.2
20260509224056 91 212 0.0 2.0 0.00 0.00 0.00 11 1010.9
20260509223302 92 201 1.0 2.0 0.00 0.00 0.00 11 1011.2
20260509222653 91 212 0.0 1.0 0.00 0.00 0.00 11 1011.2
20260509222052 90 201 0.0 8.0 0.00 0.00 0.00 11 1011.2
20260509221510 89 197 0.0 1.0 0.00 0.00 0.00 11 1011.2
20260509220855 90 227 0.0 0.0 0.00 0.00 0.00 11 1011.2
20260509220225 90 242 0.0 2.0 0.00 0.00 0.00 12 1011.2
20260509215653 89 339 0.0 0.0 0.00 0.00 0.00 12 1011.2
20260509215306 88 194 0.0 0.0 0.00 0.00 0.00 13 1011.6
20260509214452 89 128 0.0 0.0 0.00 0.00 0.00 12 1011.9
20260509213844 89 148 0.0 0.0 0.00 0.00 0.00 11 1011.6
20260509213252 89 236 0.0 3.0 0.00 0.00 0.00 11 1011.9
20260509212650 91 177 1.0 3.0 0.00 0.00 0.00 11 1011.6
20260509212049 91 162 0.0 0.0 0.00 0.00 0.00 11 1011.9
20260509211452 93 240 0.0 0.0 0.00 0.00 0.00 10 1012.3
20260509210850 93 197 0.0 0.0 0.00 0.00 0.00 10 1012.3
20260509210329 93 240 0.0 1.0 0.00 0.00 0.00 10 1012.3
20260509205804 93 350 0.0 11.0 0.00 0.00 0.00 10 1012.6
20260509205516 93 263 4.0 11.0 0.00 0.00 0.00 10 1012.3
20260509204654 92 231 0.0 2.0 0.00 0.00 0.00 10 1012.3
20260509204051 92 19 0.0 3.0 0.00 0.00 0.00 11 1012.3
20260509203453 92 325 1.0 3.0 0.00 0.00 0.00 10 1012.9
20260509202852 91 201 0.0 9.0 0.00 0.00 0.00 12 1012.6
20260509202254 92 246 3.0 9.0 0.00 0.00 0.00 11 1012.9
20260509201658 93 321 0.0 0.0 0.00 0.00 0.00 12 1013.3
20260509201032 92 247 0.0 0.0 0.00 0.00 0.00 11 1012.9
20260509200451 91 357 0.0 9.0 0.00 0.00 0.00 11 1013.3
20260509195853 93 344 0.0 0.0 0.00 0.00 0.00 11 1012.9
20260509195247 92 165 0.0 1.0 0.00 0.00 0.00 11 1012.9
20260509194658 90 241 0.0 1.0 0.00 0.00 0.00 12 1013.3
20260509194052 91 316 0.0 0.0 0.00 0.00 0.00 11 1013.3
20260509193443 91 271 0.0 0.0 0.00 0.00 0.00 12 1013.3
20260509192854 90 12 0.0 0.0 0.00 0.00 0.00 12 1013.6
20260509192307 91 226 0.0 0.0 0.00 0.00 0.00 14 1013.6
20260509192011 90 284 0.0 0.0 0.00 0.00 0.00 13 1013.6
20260509191150 91 208 0.0 0.0 0.00 0.00 0.00 13 1013.6
20260509190601 91 216 0.0 0.0 0.00 0.00 0.00 13 1013.6
20260509185954 90 139 0.0 0.0 0.00 0.00 0.00 14 1013.6
20260509185346 90 185 0.0 0.0 0.00 0.00 0.00 14 1013.9
20260509184753 90 168 0.0 3.0 0.00 0.00 0.00 13 1014.3
20260509184204 89 190 1.0 7.0 0.00 0.00 0.00 14 1013.9
20260509183656 90 216 2.0 7.0 0.00 0.00 0.00 14 1014.3
20260509183052 89 185 0.0 0.0 0.00 0.00 0.00 16 1014.3
20260509182719 89 212 0.0 0.0 0.00 0.00 0.00 14 1014.6
20260509181912 87 192 0.0 6.0 0.00 0.00 0.00 15 1014.6
20260509181255 87 215 0.0 6.0 0.00 0.00 0.00 15 1014.6
20260509180652 87 205 0.0 4.0 0.00 0.00 0.00 14 1014.6
20260509180058 87 172 0.0 2.0 0.00 0.00 0.00 15 1014.6
20260509175452 88 229 0.0 0.0 0.00 0.00 0.00 15 1015.0
20260509174932 87 150 0.0 2.0 0.00 0.00 0.00 17 1015.0
20260509174612 86 191 0.0 3.0 0.00 0.00 0.00 17 1015.0
20260509173803 86 182 2.0 3.0 0.00 0.00 0.00 19 1015.0
20260509173245 85 348 0.0 2.0 0.00 0.00 0.00 21 1015.0
20260509172651 85 185 0.0 0.0 0.00 0.00 0.00 21 1015.0
20260509172056 84 179 0.0 0.0 0.00 0.00 0.00 21 1015.3
20260509171457 83 200 0.0 14.0 0.00 0.00 0.00 21 1015.3
20260509170847 83 206 6.0 14.0 0.00 0.00 0.00 21 1015.3
20260509170516 82 229 0.0 9.0 0.00 0.00 0.00 23 1015.0
20260509165919 82 200 2.0 6.0 0.00 0.00 0.00 22 1015.6
20260509165055 81 186 0.0 4.0 0.00 0.00 0.00 23 1015.6
20260509164457 81 206 2.0 4.0 0.00 0.00 0.00 23 1015.6
20260509164104 80 182 0.0 4.0 0.00 0.00 0.00 24 1015.3
20260509163256 81 200 0.0 4.0 0.00 0.00 0.00 23 1015.3
20260509162708 79 187 2.0 7.0 0.00 0.00 0.00 24 1015.6
20260509162106 78 200 0.0 11.0 0.00 0.00 0.00 25 1015.6
20260509161553 78 192 0.0 7.0 0.00 0.00 0.00 24 1015.3
20260509160947 77 203 3.0 3.0 0.00 0.00 0.00 26 1015.3
20260509160419 76 136 0.0 6.0 0.00 0.00 0.00 26 1015.0
20260509155804 75 204 2.0 11.0 0.00 0.00 0.00 27 1015.0
20260509155151 75 228 2.0 10.0 0.00 0.00 0.00 27 1015.3
20260509154551 75 142 0.0 2.0 0.00 0.00 0.00 27 1015.0
20260509154004 75 185 0.0 2.0 0.00 0.00 0.00 29 1015.3
20260509153350 74 159 0.0 9.0 0.00 0.00 0.00 29 1015.3
20260509152755 72 173 0.0 9.0 0.00 0.00 0.00 31 1015.0
20260509152634 71 198 1.0 9.0 0.00 0.00 0.00 32 1015.3
20260509151552 71 149 0.0 13.0 0.00 0.00 0.00 33 1015.0
20260509150957 71 159 3.0 13.0 0.00 0.00 0.00 33 1015.3
20260509150619 70 144 2.0 9.0 0.00 0.00 0.00 33 1015.0
20260509150029 69 130 4.0 9.0 0.00 0.00 0.00 35 1015.3
20260509145203 69 151 3.0 13.0 0.00 0.00 0.00 35 1015.3
20260509144616 69 131 6.0 9.0 0.00 0.00 0.00 36 1015.3
20260509144008 67 158 4.0 9.0 0.00 0.00 0.00 37 1015.3
20260509143609 67 128 7.0 9.0 0.00 0.00 0.00 38 1015.6
20260509142913 66 136 4.0 7.0 0.00 0.00 0.00 39 1015.6
20260509142753 67 160 1.0 9.0 0.00 0.00 0.00 39 1015.3
20260509141557 66 159 2.0 6.0 0.00 0.00 0.00 40 1015.6
20260509140951 65 131 3.0 4.0 0.00 0.00 0.00 41 1015.6
20260509140351 65 130 0.0 4.0 0.00 0.00 0.00 42 1015.6
20260509140108 65 145 0.0 3.0 0.00 0.00 0.00 43 1015.6
20260509135249 64 142 1.0 3.0 0.00 0.00 0.00 43 1015.6
20260509134656 64 140 0.0 2.0 0.00 0.00 0.00 44 1015.6
20260509134152 63 147 0.0 0.0 0.00 0.00 0.00 44 1016.0
20260509133746 62 107 0.0 0.0 0.00 0.00 0.00 42 1015.6
20260509133633 63 130 0.0 0.0 0.00 0.00 0.00 43 1015.6
20260509132456 62 107 0.0 0.0 0.00 0.00 0.00 41 1015.6
20260509131846 61 107 0.0 0.0 0.00 0.00 0.00 43 1015.6
20260509131257 60 107 0.0 0.0 0.00 0.00 0.00 43 1015.3
20260509130652 61 107 0.0 0.0 0.00 0.00 0.00 42 1015.3
20260509130534 59 107 0.0 0.0 0.00 0.00 0.00 44 1015.3
20260509125504 57 106 0.0 0.0 0.00 0.00 0.00 46 1015.3
20260509124856 56 106 0.0 0.0 0.00 0.00 0.00 48 1015.3
20260509124257 54 106 0.0 0.0 0.00 0.00 0.00 49 1015.6
20260509123718 53 106 0.0 0.0 0.00 0.00 0.00 50 1015.0
20260509123153 51 105 0.0 0.0 0.00 0.00 0.00 55 1015.0
20260509123052 51 105 0.0 0.0 0.00 0.00 0.00 53 1015.3
20260509121912 50 105 0.0 0.0 0.00 0.00 0.00 55 1015.0
20260509121251 50 106 0.0 0.0 0.00 0.00 0.00 56 1015.0
20260509120654 50 106 0.0 0.0 0.00 0.00 0.00 56 1015.3
20260509120233 50 106 0.0 0.0 0.00 0.00 0.00 54 1015.0
20260509120112 50 106 0.0 0.0 0.00 0.00 0.00 55 1015.3
20260509114852 51 106 0.0 0.0 0.00 0.00 0.00 53 1015.0
20260509114306 51 106 0.0 0.0 0.00 0.00 0.00 52 1015.0
20260509113652 52 106 0.0 0.0 0.00 0.00 0.00 52 1015.0
20260509113051 53 107 0.0 0.0 0.00 0.00 0.00 52 1015.0
20260509112454 54 107 0.0 0.0 0.00 0.00 0.00 50 1015.0
20260509112119 54 107 0.0 0.0 0.00 0.00 0.00 49 1015.3
20260509111250 55 107 0.0 0.0 0.00 0.00 0.00 48 1015.0
20260509110717 56 107 0.0 0.0 0.00 0.00 0.00 46 1015.0
20260509110055 56 108 0.0 0.0 0.00 0.00 0.00 46 1015.0
20260509105456 56 107 0.0 0.0 0.00 0.00 0.00 46 1015.0
20260509104858 57 108 0.0 0.0 0.00 0.00 0.00 45 1015.0
20260509104313 57 107 0.0 0.0 0.00 0.00 0.00 43 1015.0
20260509103653 58 106 0.0 0.0 0.00 0.00 0.00 42 1015.0
20260509103056 58 116 0.0 0.0 0.00 0.00 0.00 42 1015.3
20260509102454 58 124 0.0 0.0 0.00 0.00 0.00 42 1015.0
20260509101902 59 133 0.0 1.0 0.00 0.00 0.00 41 1015.6
20260509101251 59 128 0.0 0.0 0.00 0.00 0.00 42 1015.3
20260509100900 59 124 0.0 2.0 0.00 0.00 0.00 42 1015.6
20260509100050 59 123 1.0 2.0 0.00 0.00 0.00 42 1015.3
20260509095508 59 114 0.0 0.0 0.00 0.00 0.00 41 1015.3
20260509094856 58 109 0.0 0.0 0.00 0.00 0.00 42 1015.3
20260509094252 58 110 0.0 0.0 0.00 0.00 0.00 42 1015.3
20260509093917 58 112 0.0 0.0 0.00 0.00 0.00 42 1015.3
20260509093051 59 103 0.0 0.0 0.00 0.00 0.00 42 1015.3
20260509092721 59 107 0.0 0.0 0.00 0.00 0.00 41 1015.3
20260509091843 59 103 0.0 0.0 0.00 0.00 0.00 41 1015.6
20260509091235 59 102 0.0 0.0 0.00 0.00 0.00 40 1015.3
20260509090655 60 102 0.0 0.0 0.00 0.00 0.00 40 1015.3
20260509090106 60 105 0.0 0.0 0.00 0.00 0.00 40 1015.3
20260509085739 60 119 0.0 0.0 0.00 0.00 0.00 39 1015.6
20260509084948 60 143 0.0 0.0 0.00 0.00 0.00 40 1015.3
20260509084352 60 135 0.0 0.0 0.00 0.00 0.00 40 1015.6
20260509083748 60 123 0.0 0.0 0.00 0.00 0.00 39 1015.3
20260509083154 60 97 0.0 0.0 0.00 0.00 0.00 40 1015.6
20260509082547 60 129 0.0 0.0 0.00 0.00 0.00 40 1015.6
20260509082000 60 113 0.0 0.0 0.00 0.00 0.00 39 1015.6
20260509081351 60 107 0.0 0.0 0.00 0.00 0.00 39 1015.6
20260509081118 60 129 0.0 0.0 0.00 0.00 0.00 39 1015.6
20260509080903 60 129 0.0 0.0 0.00 0.00 0.00 39 1015.6
20260509080251 60 127 0.0 0.0 0.00 0.00 0.00 39 1015.6
20260509075911 60 130 0.0 0.0 0.00 0.00 0.00 39 1015.6
20260509075320 60 110 0.0 1.0 0.00 0.00 0.00 39 1015.6
20260509074452 61 123 0.0 1.0 0.00 0.00 0.00 38 1015.6
20260509073856 61 126 0.0 1.0 0.00 0.00 0.00 38 1015.6
20260509073251 61 71 0.0 0.0 0.00 0.00 0.00 38 1015.6
20260509072652 61 130 0.0 0.0 0.00 0.00 0.00 37 1016.0
20260509072310 62 125 0.0 0.0 0.00 0.00 0.00 37 1015.6
20260509071513 62 104 0.0 0.0 0.00 0.00 0.00 37 1016.0
20260509071216 62 128 0.0 0.0 0.00 0.00 0.00 37 1015.6
20260509070439 62 106 0.0 2.0 0.00 0.00 0.00 36 1015.6
20260509070345 63 132 0.0 1.0 0.00 0.00 0.00 36 1015.6
20260509065252 63 108 0.0 3.0 0.00 0.00 0.00 36 1015.3
20260509064653 63 125 0.0 3.0 0.00 0.00 0.00 35 1015.3
20260509064055 63 121 0.0 2.0 0.00 0.00 0.00 35 1015.3
20260509063448 63 112 0.0 6.0 0.00 0.00 0.00 35 1015.0
20260509062852 64 110 3.0 6.0 0.00 0.00 0.00 35 1015.0
20260509062502 64 136 0.0 7.0 0.00 0.00 0.00 35 1015.0
20260509061652 64 110 0.0 7.0 0.00 0.00 0.00 34 1015.0
20260509061329 64 76 0.0 2.0 0.00 0.00 0.00 34 1015.3
20260509060813 64 107 0.0 1.0 0.00 0.00 0.00 34 1015.0
20260509060204 65 117 0.0 2.0 0.00 0.00 0.00 33 1015.0
20260509055353 65 112 0.0 2.0 0.00 0.00 0.00 33 1015.0
20260509055229 65 106 0.0 4.0 0.00 0.00 0.00 33 1015.0
20260509054131 65 117 2.0 4.0 0.00 0.00 0.00 33 1015.0
20260509053621 66 128 0.0 1.0 0.00 0.00 0.00 32 1015.3
20260509052951 66 88 0.0 1.0 0.00 0.00 0.00 32 1015.0
20260509052358 67 110 0.0 4.0 0.00 0.00 0.00 31 1015.0
20260509051753 67 92 0.0 9.0 0.00 0.00 0.00 31 1015.0
20260509051150 67 130 0.0 2.0 0.00 0.00 0.00 31 1015.0
20260509050550 67 102 0.0 3.0 0.00 0.00 0.00 31 1014.6
20260509050218 67 117 1.0 7.0 0.00 0.00 0.00 30 1014.6
20260509045353 67 118 1.0 6.0 0.00 0.00 0.00 30 1014.6
20260509044744 67 102 1.0 7.0 0.00 0.00 0.00 30 1014.6
20260509044150 68 104 0.0 7.0 0.00 0.00 0.00 30 1015.0
20260509043557 68 121 0.0 6.0 0.00 0.00 0.00 29 1015.0
20260509043213 68 117 1.0 3.0 0.00 0.00 0.00 29 1014.6
20260509042436 69 99 1.0 2.0 0.00 0.00 0.00 29 1015.0
20260509041838 69 115 0.0 1.0 0.00 0.00 0.00 29 1015.0
20260509041304 69 122 0.0 2.0 0.00 0.00 0.00 28 1014.6
20260509040652 69 126 1.0 2.0 0.00 0.00 0.00 28 1015.0
20260509040317 69 114 0.0 6.0 0.00 0.00 0.00 28 1015.0
20260509035447 69 99 2.0 6.0 0.00 0.00 0.00 28 1015.0
20260509034859 70 87 2.0 4.0 0.00 0.00 0.00 27 1015.0
20260509034252 70 123 0.0 3.0 0.00 0.00 0.00 27 1015.0
20260509033654 70 98 0.0 1.0 0.00 0.00 0.00 27 1015.0
20260509033047 71 129 0.0 0.0 0.00 0.00 0.00 27 1015.0
20260509032440 71 110 0.0 0.0 0.00 0.00 0.00 26 1015.0
20260509031900 71 130 0.0 0.0 0.00 0.00 0.00 26 1014.6
20260509031252 71 110 0.0 4.0 0.00 0.00 0.00 26 1014.6
20260509031132 71 59 0.0 4.0 0.00 0.00 0.00 26 1015.0
20260509030312 71 157 2.0 4.0 0.00 0.00 0.00 26 1014.3
20260509025455 72 86 0.0 0.0 0.00 0.00 0.00 25 1014.6
20260509024852 72 108 0.0 1.0 0.00 0.00 0.00 25 1014.6
20260509024307 72 83 0.0 2.0 0.00 0.00 0.00 25 1014.6
20260509023700 73 89 0.0 3.0 0.00 0.00 0.00 25 1013.9